TimeCDT,TemperatureF,Dew PointF,Humidity,Sea Level PressureIn,VisibilityMPH,Wind Direction,Wind SpeedMPH,Gust SpeedMPH,PrecipitationIn,Events,Conditions,WindDirDegrees,DateUTC
12:52 AM,69.1,54.0,58,29.92,-9999.0,NE,10.4,-,N/A,,Unknown,50,2013-09-01 05:52:00
1:52 AM,64.9,53.1,65,29.93,-9999.0,ENE,4.6,-,N/A,,Unknown,60,2013-09-01 06:52:00
2:52 AM,62.1,53.1,72,29.93,-9999.0,NNE,4.6,-,N/A,,Unknown,20,2013-09-01 07:52:00
3:52 AM,57.0,51.1,81,29.94,-9999.0,NNW,6.9,-,N/A,,Unknown,340,2013-09-01 08:52:00
4:52 AM,55.9,52.0,87,29.95,-9999.0,NNW,6.9,-,N/A,,Unknown,330,2013-09-01 09:52:00
5:52 AM,57.0,52.0,83,29.96,-9999.0,NNW,9.2,-,N/A,,Unknown,340,2013-09-01 10:52:00
6:52 AM,54.0,50.0,86,29.99,-9999.0,WSW,3.5,-,N/A,,Unknown,250,2013-09-01 11:52:00
7:52 AM,60.1,52.0,75,30.01,-9999.0,North,4.6,-,N/A,,Unknown,350,2013-09-01 12:52:00
8:52 AM,64.9,54.0,68,30.03,-9999.0,North,3.5,-,N/A,,Unknown,350,2013-09-01 13:52:00
9:52 AM,71.1,55.0,57,30.03,-9999.0,NNE,5.8,-,N/A,,Unknown,20,2013-09-01 14:52:00
10:52 AM,75.0,54.0,48,30.04,-9999.0,NE,10.4,17.3,N/A,,Unknown,50,2013-09-01 15:52:00
11:52 AM,77.0,54.0,45,30.04,-9999.0,NE,11.5,19.6,N/A,,Unknown,40,2013-09-01 16:52:00
12:52 PM,79.0,54.0,42,30.04,-9999.0,NE,12.7,19.6,N/A,,Unknown,40,2013-09-01 17:52:00
1:52 PM,80.1,54.0,40,30.03,-9999.0,North,11.5,24.2,N/A,,Unknown,10,2013-09-01 18:52:00
2:52 PM,82.0,53.1,37,30.02,-9999.0,NE,12.7,19.6,N/A,,Unknown,50,2013-09-01 19:52:00
3:52 PM,82.0,54.0,38,30.01,-9999.0,NE,10.4,20.7,N/A,,Unknown,40,2013-09-01 20:52:00
4:52 PM,82.0,53.1,37,30.01,-9999.0,Variable,6.9,-,N/A,,Unknown,0,2013-09-01 21:52:00
5:52 PM,82.0,53.1,37,30.00,-9999.0,NE,8.1,-,N/A,,Unknown,40,2013-09-01 22:52:00
6:52 PM,80.1,53.1,39,30.00,-9999.0,ENE,8.1,-,N/A,,Unknown,60,2013-09-01 23:52:00
7:52 PM,73.9,55.0,52,30.01,-9999.0,East,6.9,-,N/A,,Unknown,90,2013-09-02 00:52:00
8:52 PM,68.0,54.0,61,30.03,-9999.0,East,5.8,-,N/A,,Unknown,90,2013-09-02 01:52:00
9:52 PM,64.9,54.0,68,30.04,-9999.0,East,4.6,-,N/A,,Unknown,100,2013-09-02 02:52:00
10:52 PM,63.0,54.0,72,30.05,-9999.0,East,5.8,-,N/A,,Unknown,80,2013-09-02 03:52:00
11:52 PM,57.9,52.0,81,30.06,-9999.0,SSW,5.8,-,N/A,,Unknown,210,2013-09-02 04:52:00